This is the latest recevied weather packets stored in our database for station/object HB9TJR-3. If no packets are shown the sender has not sent any weather packets the latest 10 day(s).
| Time | Temp. | Humidity | Pressure | Rain* | Wind** | Luminosity | Snow |
|---|---|---|---|---|---|---|---|
| 1788519890 | 23.89° C | 57% | 873.1 hPa | 0 mm | - | - | - |
| 1788519335 | 23.89° C | 57% | 873.1 hPa | 0 mm | - | - | - |
| 1788519331 | 23.89° C | 57% | 873.1 hPa | 0 mm | - | - | - |
| 1788518419 | 23.33° C | 58% | 873.2 hPa | 0 mm | - | - | - |
| 1788518375 | 23.33° C | 58% | 873.2 hPa | 0 mm | - | - | - |
| 1788518371 | 23.33° C | 58% | 873.2 hPa | 0 mm | - | - | - |
| 1788517459 | 23.33° C | 58% | 873.3 hPa | 0 mm | - | - | - |
| 1788517415 | 23.33° C | 58% | 873.3 hPa | 0 mm | - | - | - |
| 1788517411 | 23.33° C | 58% | 873.3 hPa | 0 mm | - | - | - |
| 1788516453 | 23.33° C | 57% | 873.5 hPa | 0 mm | - | - | - |
| 1788515496 | 22.78° C | 57% | 873.6 hPa | 0 mm | - | - | - |
| 1788515491 | 22.78° C | 57% | 873.6 hPa | 0 mm | - | - | - |
| 1788514531 | 22.22° C | 60% | 873.6 hPa | 0 mm | - | - | - |
| 1788513575 | 22.22° C | 57% | 873.7 hPa | 0 mm | - | - | - |
| 1788513571 | 22.22° C | 57% | 873.7 hPa | 0 mm | - | - | - |
| 1788512154 | 21.67° C | 57% | 873.6 hPa | 0 mm | - | - | - |
| 1788511651 | 21.67° C | 57% | 873.6 hPa | 0 mm | - | - | - |
| 1788510691 | 21.67° C | 58% | 873.6 hPa | 0 mm | - | - | - |
| 1788509731 | 21.67° C | 60% | 873.4 hPa | 0 mm | - | - | - |
| 1788508776 | 21.11° C | 59% | 873.4 hPa | 0 mm | - | - | - |
| 1788508771 | 21.11° C | 59% | 873.4 hPa | 0 mm | - | - | - |
| 1788508183 | 21.11° C | 59% | 873.4 hPa | 0 mm | - | - | - |
| 1788507816 | 21.11° C | 59% | 873.4 hPa | 0 mm | - | - | - |
| 1788507811 | 21.11° C | 59% | 873.4 hPa | 0 mm | - | - | - |
| 1788505891 | 20° C | 63% | 873.5 hPa | 0 mm | - | - | - |
* Rain latest hour (hover to see other rain measurements)
** Current wind speed in m/s (hover to see current wind gust speed)